User: anonymous   Login
Location: Myra
(43.4160°N, 88.0960°W)
Time: 12:13:35
(UTC-06:00)
Language:

SL-8 R/B - Orbit

View from above orbital plane
View from above orbital plane
View from above satellite
View from above satellite

Ground track
Ground track

The orbit data is extracted from the following two-line orbital elements,

1 33066U 08031G   16043.09157060  .00000190  00000-0  64561-4 0  9998
2 33066  48.4427 247.2385 0007859 203.3172 301.6679 14.69373252410534
Epoch (UTC): 12 February 2016 02:11:51
Eccentricity: 0.0007859
inclination: 48.4427°
perigee height: 657 km
apogee height: 668 km
right ascension of ascending node: 247.2385°
argument of perigee: 203.3172°
revolutions per day: 14.69373252
mean anomaly at epoch: 301.6679°
orbit number at epoch: 41053

The dashed part of the orbit path shows where the satellite is in the earth's shadow,  

DLR